TimePDT,TemperatureF,Dew PointF,Humidity,Sea Level PressureIn,VisibilityMPH,Wind Direction,Wind SpeedMPH,Gust SpeedMPH,PrecipitationIn,Events,Conditions,WindDirDegrees,DateUTC
12:54 AM,59.0,54.0,83,29.80,10.0,WSW,5.8,-,N/A,,Clear,250,2013-08-24 07:54:00
1:54 AM,57.9,53.1,84,29.81,10.0,SW,6.9,-,N/A,,Clear,230,2013-08-24 08:54:00
2:54 AM,57.0,52.0,83,29.81,10.0,WSW,6.9,-,N/A,,Clear,240,2013-08-24 09:54:00
3:54 AM,55.9,52.0,87,29.81,10.0,West,9.2,-,N/A,,Clear,260,2013-08-24 10:54:00
4:54 AM,53.1,50.0,89,29.81,10.0,Calm,Calm,-,N/A,,Clear,0,2013-08-24 11:54:00
5:54 AM,50.0,48.0,93,29.81,10.0,Calm,Calm,-,N/A,,Clear,0,2013-08-24 12:54:00
6:28 AM,53.6,51.8,94,29.84,10.0,Calm,Calm,-,N/A,,Mostly Cloudy,0,2013-08-24 13:28:00
6:54 AM,53.1,50.0,89,29.82,10.0,Calm,Calm,-,N/A,,Mostly Cloudy,0,2013-08-24 13:54:00
7:03 AM,51.8,48.2,88,29.85,10.0,Calm,Calm,-,N/A,,Scattered Clouds,0,2013-08-24 14:03:00
7:40 AM,55.4,53.6,94,29.86,10.0,NW,3.5,-,N/A,,Partly Cloudy,310,2013-08-24 14:40:00
7:54 AM,55.9,53.1,90,29.84,10.0,Calm,Calm,-,N/A,,Mostly Cloudy,0,2013-08-24 14:54:00
8:04 AM,57.2,53.6,88,29.86,10.0,Calm,Calm,-,N/A,,Scattered Clouds,0,2013-08-24 15:04:00
8:24 AM,57.2,53.6,88,29.86,10.0,Calm,Calm,-,N/A,,Mostly Cloudy,0,2013-08-24 15:24:00
8:54 AM,61.0,54.0,78,29.85,10.0,WSW,5.8,-,N/A,,Scattered Clouds,240,2013-08-24 15:54:00
9:54 AM,66.0,55.0,68,29.85,10.0,SW,9.2,-,N/A,,Partly Cloudy,230,2013-08-24 16:54:00
10:54 AM,69.1,55.0,61,29.86,10.0,SW,9.2,-,N/A,,Clear,230,2013-08-24 17:54:00
11:54 AM,73.9,55.9,53,29.85,10.0,SSW,11.5,-,N/A,,Clear,210,2013-08-24 18:54:00
12:54 PM,75.9,57.0,52,29.83,10.0,SSW,15.0,-,N/A,,Clear,200,2013-08-24 19:54:00
1:54 PM,77.0,57.9,52,29.83,10.0,SSW,16.1,-,N/A,,Clear,200,2013-08-24 20:54:00
2:54 PM,78.1,57.9,50,29.82,10.0,SW,15.0,20.7,N/A,,Clear,220,2013-08-24 21:54:00
3:33 PM,82.4,55.4,39,29.83,10.0,West,16.1,-,N/A,,Clear,260,2013-08-24 22:33:00
3:54 PM,81.0,55.0,41,29.81,10.0,West,18.4,25.3,N/A,,Clear,260,2013-08-24 22:54:00
4:54 PM,79.0,55.0,44,29.81,10.0,WSW,16.1,24.2,N/A,,Clear,250,2013-08-24 23:54:00
5:54 PM,75.0,55.0,50,29.81,10.0,West,18.4,-,N/A,,Clear,260,2013-08-25 00:54:00
6:54 PM,72.0,55.9,57,29.80,10.0,West,18.4,23.0,N/A,,Clear,270,2013-08-25 01:54:00
7:54 PM,66.9,55.9,68,29.81,10.0,West,20.7,28.8,N/A,,Clear,260,2013-08-25 02:54:00
8:54 PM,64.0,55.9,75,29.83,10.0,West,16.1,-,N/A,,Clear,260,2013-08-25 03:54:00
9:54 PM,64.0,55.9,75,29.83,10.0,West,23.0,29.9,N/A,,Clear,260,2013-08-25 04:54:00
10:54 PM,63.0,57.0,81,29.84,10.0,West,16.1,-,N/A,,Clear,260,2013-08-25 05:54:00
11:54 PM,63.0,57.0,81,29.85,10.0,WSW,10.4,-,N/A,,Clear,250,2013-08-25 06:54:00